User: anonymous   Login
Location: Kaiser
(34.0939°N, 117.4889°W)
Time: 14:10:17
(UTC+00:00)
Language:

Cosmos 1400 Rocket - Orbit

View from above orbital plane
View from above orbital plane
View from above satellite
View from above satellite

Ground track
Ground track

The orbit data is extracted from the following two-line orbital elements,

1 13403U 82079B   21020.15878830 -.00000112  00000-0 -88852-5 0  9994
2 13403  81.1670 204.5900 0031535 267.7053  92.0560 15.07298177 94465
Epoch (UTC): 20 January 2021 03:48:39
Eccentricity: 0.0031535
inclination: 81.1670°
perigee height: 522 km
apogee height: 566 km
right ascension of ascending node: 204.5900°
argument of perigee: 267.7053°
revolutions per day: 15.07298177
mean anomaly at epoch: 92.0560°
orbit number at epoch: 9446

The dashed part of the orbit path shows where the satellite is in the earth's shadow,  

DLR